Location: Coupvray
(48.8929°N, 2.7967°E)
Time: 10:35:17
(UTC+00:00)

Altair 2 - Pass Details

Date: 18 January 2021
Orbit: 837 x 949 km, 90.2° (Epoch: 26 February)

Event Time Altitude Azimuth Distance (km) Brightness Sun altitude
Rises 19:21:42 0° 206° (SSW) 3,402 11.2 -28.6°
Reaches altitude 10° 19:24:22 10° 217° (SW) 2,461 10.5 -29.0°
Maximum altitude 19:29:12 31° 278° (W) 1,444 9.4 -29.8°
Drops below altitude 10° 19:34:02 10° 340° (NNW) 2,463 10.3 -30.6°
Sets 19:36:43 0° 351° (N) 3,406 11.0 -31.1°
